Home   Weather   40°19'N, 76°46'W   Past weeks
Flag for USA

Past Weather in 40°19'N, 76°46'W, USA — Yesterday and Last 2 Weeks

Now
60 °F

Drizzle. Fog.


Feels Like: 60 °F
Forecast: 62 / 56 °F
Wind: 7 mph from Southeast

Location: Capital City Airport

Current Time: Oct 22, 2019 at 8:23:14 am

Latest Report: Oct 22, 2019 at 7:56 am


Visibility: 2 mi

Pressure: 29.99 "Hg

Humidity: 83%

Dew Point: 55 °F

Location of 40°19'N, 76°46'WLocation

Past Weather in 40°19'N, 76°46'W — Graph

°F

40°19'N, 76°46'W Temperature Yesterday

Maximum temperature yesterday: 68 °F (at 3:56 pm)
Minimum temperature yesterday: 50 °F (at 5:17 am)
Average temperature yesterday: 58 °F

High & Low Weather Summary for the Past Weeks

 TemperatureHumidityPressure
High75 °F (Oct 10, 2:56 pm)89% (Oct 20, 10:56 pm)30.31 "Hg (Oct 20, 10:56 pm)
Low38 °F (Oct 19, 6:56 am)27% (Oct 14, 1:56 pm)29.47 "Hg (Oct 17, 3:56 am)
Average58 °F64%30.03 "Hg
* Reported Oct 7 7:56 am — Oct 22 7:14 am, 40°19'N, 76°46'W. Weather by CustomWeather, © 2019

Note: Actual official high and low records may vary slightly from our data, if they occured in-between our weather recording intervals... More about our weather records

Advertising

40°19'N, 76°46'W Weather History for the Previous 24 Hours

Scroll right to see more
 ConditionsComfort  
Time TempWeatherWind HumidityBarometerVisibility
7:14 am
Tue, Oct 22
59 °FDrizzle. Fog.10 mph87%29.97 "Hg2 mi
6:56 am60 °FDrizzle. Fog.10 mph83%29.98 "Hg3 mi
6:20 am60 °FOvercast.9 mph83%29.99 "Hg9 mi
6:09 am60 °FLow clouds.8 mph83%30.00 "Hg10 mi
5:56 am60 °FOvercast.6 mph83%30.00 "Hg10 mi
4:56 am59 °FFog.7 mph87%30.01 "Hg6 mi
3:56 am59 °FFog.9 mph87%30.01 "Hg6 mi
3:24 am60 °FLow clouds.10 mph80%30.03 "Hg10 mi
2:56 am60 °FOvercast.6 mph80%30.06 "Hg10 mi
1:56 am60 °FOvercast.7 mph75%30.06 "Hg10 mi
1:06 am60 °FMostly cloudy.6 mph75%30.07 "Hg10 mi
12:56 am60 °FMostly cloudy.9 mph72%30.06 "Hg10 mi
11:56 pm
Mon, Oct 21
60 °FPassing clouds.8 mph69%30.05 "Hg10 mi
10:56 pm60 °FClear.No wind69%30.08 "Hg10 mi
9:56 pm60 °FClear.No wind69%30.06 "Hg10 mi
8:56 pm56 °FClear.No wind77%30.07 "Hg10 mi
7:56 pm57 °FClear.No wind78%30.06 "Hg10 mi
6:56 pm59 °FClear.No wind72%30.06 "Hg10 mi
5:56 pm66 °FSunny.3 mph54%30.05 "Hg10 mi
4:56 pm68 °FSunny.7 mph51%30.04 "Hg10 mi
3:56 pm68 °FSunny.8 mph51%30.03 "Hg10 mi
1:56 pm66 °FSunny.No wind54%30.06 "Hg10 mi
12:56 pm64 °FSunny.No wind58%30.09 "Hg10 mi
11:56 am60 °FScattered clouds.No wind65%30.11 "Hg10 mi
10:56 am59 °FPartly sunny.3 mph67%30.13 "Hg10 mi
9:56 am58 °FPartly sunny.6 mph72%30.12 "Hg10 mi
8:56 am56 °FOvercast.No wind77%30.11 "Hg10 mi
Weather by CustomWeather, © 2019

See weather overview